Time,TemperatureF,DewpointF,PressureIn,WindDirection,WindDirectionDegrees,WindSpeedMPH,WindSpeedGustMPH,Humidity,HourlyPrecipIn,Conditions,Clouds,dailyrainin,SoftwareType,DateUTC
2013-06-14 00:00:00,53.0,-99.9,-100.00,SSW,195,7.0,-999.0,-999,-99.99,,,-99.99,,2013-06-14 07:00:00,
2013-06-14 01:00:00,52.0,-99.9,-100.00,South,188,7.0,-999.0,-999,-99.99,,,-99.99,,2013-06-14 08:00:00,
2013-06-14 02:00:00,52.0,-99.9,-100.00,South,183,7.0,-999.0,-999,-99.99,,,-99.99,,2013-06-14 09:00:00,
2013-06-14 03:00:00,51.0,-99.9,-100.00,South,187,6.0,-999.0,-999,-99.99,,,-99.99,,2013-06-14 10:00:00,
2013-06-14 05:00:00,51.0,-99.9,-100.00,South,176,2.0,-999.0,-999,-99.99,,,-99.99,,2013-06-14 12:00:00,
2013-06-14 07:00:00,50.0,-99.9,-100.00,NW,309,1.0,-999.0,-999,-99.99,,,-99.99,,2013-06-14 14:00:00,
2013-06-14 08:00:00,51.0,-99.9,-100.00,North,2,1.0,-999.0,-999,-99.99,,,-99.99,,2013-06-14 15:00:00,
2013-06-14 09:00:00,53.0,-99.9,-100.00,WNW,297,2.0,-999.0,-999,-99.99,,,-99.99,,2013-06-14 16:00:00,
2013-06-14 10:00:00,55.0,-99.9,-100.00,NNW,331,3.0,-999.0,-999,-99.99,,,-99.99,,2013-06-14 17:00:00,
2013-06-14 11:00:00,58.0,-99.9,-100.00,NNE,12,5.0,-999.0,-999,-99.99,,,-99.99,,2013-06-14 18:00:00,
2013-06-14 12:00:00,59.0,-99.9,-100.00,NNW,341,6.0,-999.0,-999,-99.99,,,-99.99,,2013-06-14 19:00:00,
2013-06-14 13:00:00,61.0,-99.9,-100.00,North,353,7.0,-999.0,-999,-99.99,,,-99.99,,2013-06-14 20:00:00,
2013-06-14 14:00:00,63.0,-99.9,-100.00,NNE,13,7.0,-999.0,-999,-99.99,,,-99.99,,2013-06-14 21:00:00,
2013-06-14 15:00:00,64.0,-99.9,-100.00,North,5,8.0,-999.0,-999,-99.99,,,-99.99,,2013-06-14 22:00:00,
2013-06-14 16:00:00,65.0,-99.9,-100.00,North,1,8.0,-999.0,-999,-99.99,,,-99.99,,2013-06-14 23:00:00,
2013-06-14 17:00:00,65.0,-99.9,-100.00,North,0,9.0,-999.0,-999,-99.99,,,-99.99,,2013-06-15 00:00:00,
2013-06-14 18:00:00,66.0,-99.9,-100.00,North,7,8.0,-999.0,-999,-99.99,,,-99.99,,2013-06-15 01:00:00,
2013-06-14 18:54:00,66.0,-99.9,-100.00,North,7,8.0,-999.0,-999,-99.99,,,-99.99,,2013-06-15 01:54:00,
2013-06-14 19:00:00,65.0,-99.9,-100.00,North,353,7.0,-999.0,-999,-99.99,,,-99.99,,2013-06-15 02:00:00,
2013-06-14 20:00:00,64.0,-99.9,-100.00,North,7,7.0,-999.0,-999,-99.99,,,-99.99,,2013-06-15 03:00:00,
2013-06-14 21:00:00,62.0,-99.9,-100.00,North,10,6.0,-999.0,-999,-99.99,,,-99.99,,2013-06-15 04:00:00,
2013-06-14 22:00:00,59.0,-99.9,-100.00,NNE,17,6.0,-999.0,-999,-99.99,,,-99.99,,2013-06-15 05:00:00,
2013-06-14 23:00:00,57.0,-99.9,-100.00,NE,40,5.0,-999.0,-999,-99.99,,,-99.99,,2013-06-15 06:00:00,